Wind_Speed
7 7 8 9 10 11 11 12 12 12 12 12 11 11 11 10 10 10 10 9 9 8 8 8 8 7 8 8 8 8 7 8 8 8 8 8 9 9 8 8 8 8 8
6 6 7 8 9 10 11 11 11 11 11 11 10 10 10 10 10 10 9 9 8 8 8 8 8 7 7 8 8 8 8 8 7 8 8 9 9 8 8 8 8 8 8
5 5 6 7 8 9 10 10 10 10 10 10 9 9 9 9 9 9 8 8 8 8 8 7 7 7 7 7 7 7 7 7 7 8 8 8 8 8 8 8 8 8 8
4 4 5 6 7 8 8 8 9 9 9 9 9 9 9 9 9 8 8 8 8 7 7 7 7 7 7 7 7 7 6 7 7 7 7 8 7 7 8 7 8 8 8
3 4 4 5 6 6 7 7 7 8 8 9 9 9 9 8 8 8 8 8 8 7 7 7 6 6 6 6 6 6 6 7 7 7 7 7 7 7 7 7 7 7 7
3 3 4 4 5 5 6 6 6 7 7 7 8 8 8 8 8 8 8 8 7 7 6 6 6 6 6 6 6 6 6 6 6 6 6 6 6 6 6 6 6 6 6
3 3 3 4 4 4 5 5 5 6 6 6 6 7 7 7 7 8 8 7 7 6 6 5 5 5 5 5 5 5 5 5 5 5 5 5 5 5 5 5 5 5 5
2 2 3 3 3 3 4 4 4 5 5 5 5 5 6 6 6 7 7 7 6 6 5 5 4 4 5 5 5 5 5 5 5 4 4 4 4 4 4 4 4 4 4
2 2 3 3 3 3 3 3 4 4 4 4 4 4 4 5 5 6 6 6 6 5 4 4 4 4 4 4 5 5 4 4 4 4 4 4 4 4 3 3 3 3 2
2 2 2 3 3 3 3 3 2 3 3 3 2 3 3 3 4 5 5 5 5 5 4 4 4 4 4 4 5 5 4 4 4 3 3 3 3 3 3 3 3 2 2
3 3 3 2 2 2 2 2 2 2 2 2 1 2 2 2 2 3 4 4 4 3 3 3 3 3 4 4 4 4 4 3 3 3 3 3 2 2 2 2 2 2 1
4 4 3 3 1 1 2 1 1 2 2 1 1 0 1 1 1 1 2 2 3 2 2 2 2 2 3 3 3 3 3 3 3 3 3 3 2 2 1 2 2 2 1
5 4 3 3 1 1 1 2 2 2 3 2 2 1 0 0 0 0 1 1 2 2 1 1 1 1 2 2 2 2 2 2 2 2 2 2 2 2 2 2 2 2 2
5 4 3 3 2 1 0 1 3 3 4 4 3 2 2 2 1 1 1 1 0 1 1 1 1 0 1 1 1 1 2 2 1 2 2 2 2 2 2 2 3 2 2
6 5 4 3 2 1 1 2 3 4 4 4 4 4 3 3 3 2 2 2 1 1 1 1 1 1 1 0 0 0 1 0 1 1 1 2 2 2 3 3 3 3 2
7 6 5 4 3 2 3 3 4 4 5 6 6 6 5 4 4 4 4 3 3 3 2 2 2 2 2 1 1 1 1 1 1 1 1 2 2 2 3 3 3 3 3
8 7 7 6 4 4 3 3 4 4 5 6 6 6 6 6 6 5 5 5 4 4 3 4 3 3 2 2 2 2 2 2 2 2 2 2 3 3 3 3 3 3 4
8 8 7 7 6 5 5 4 5 5 5 7 6 7 7 7 7 7 7 6 6 6 5 5 5 5 4 3 3 3 3 3 3 3 3 3 3 3 4 4 4 4 4
8 8 8 8 7 7 6 5 6 6 6 7 8 9 9 9 9 9 9 8 8 8 7 6 7 7 6 5 5 4 4 4 3 4 4 4 4 4 4 4 4 4 5
9 9 9 8 8 7 7 6 7 7 7 8 10 9 9 10 10 10 11 11 10 10 9 8 8 8 8 7 6 6 6 5 4 5 5 5 5 5 5 5 5 5 5
9 9 9 8 8 8 8 8 9 9 8 9 9 10 11 11 11 11 12 12 12 12 11 10 10 10 10 9 8 7 7 7 6 6 6 6 6 6 6 6 6 7 7
10 9 9 8 9 9 9 10 10 9 9 10 10 11 12 12 13 13 14 14 13 13 13 12 12 11 11 11 10 9 9 8 8 8 8 8 8 8 8 8 8 9 8
10 10 9 9 10 11 11 11 10 10 11 10 11 12 13 13 14 15 15 15 15 14 14 14 13 13 13 13 12 12 11 11 10 10 10 10 10 10 10 10 10 10 10
10 10 10 10 11 11 12 12 12 12 12 12 11 11 12 13 14 14 14 15 15 16 16 16 16 15 15 14 14 14 14 14 13 13 13 12 12 12 12 12 12 12 12
10 10 10 10 11 12 12 13 13 13 13 12 12 12 11 13 13 14 14 14 15 16 17 17 17 18 17 17 16 16 16 16 16 16 15 15 15 14 14 14 14 15 15
11 10 11 11 12 13 13 13 14 13 11 10 11 11 12 13 12 13 13 15 16 16 17 17 18 19 19 18 18 18 18 18 18 18 18 17 17 17 17 17 17 17 17
Wind_Direction
91 92 94 95 95 91 88 84 80 76 72 70 67 66 65 64 65 65 67 70 72 74 78 80 81 82 84 83 84 88 89 90 94 95 94 96 97 97 98 98 100 101 103
89 93 92 92 92 91 88 84 81 76 72 69 67 64 63 61 62 63 65 68 70 71 73 75 77 78 80 80 84 87 88 90 94 96 98 97 96 95 96 97 99 101 101
86 96 93 89 88 88 87 85 81 77 72 69 67 65 62 60 59 59 60 62 65 67 68 72 73 75 77 78 83 87 90 87 90 96 94 94 94 93 94 98 100 99 99
79 92 93 90 87 85 85 85 82 77 73 69 67 65 62 58 56 55 55 58 59 63 67 71 73 74 76 79 83 88 90 90 91 95 91 89 88 89 90 95 97 96 96
86 91 89 86 83 82 85 89 87 80 74 70 66 64 60 55 53 52 53 56 57 61 67 71 73 73 76 80 83 86 91 94 93 94 92 89 88 88 86 89 94 96 94
88 94 91 86 81 83 88 91 91 85 77 72 67 63 59 55 53 52 51 54 56 60 67 72 73 75 77 80 84 87 95 95 94 95 96 93 89 85 84 85 89 93 94
86 93 94 95 92 89 90 91 94 90 81 74 68 63 59 55 53 50 50 50 53 57 66 72 74 78 79 83 86 90 96 95 93 94 94 91 87 83 82 82 83 87 90
90 98 100 98 97 100 102 103 101 95 86 79 71 63 59 55 52 49 47 47 51 56 64 69 71 76 79 82 86 91 95 92 88 88 87 85 84 79 76 76 78 81 85
94 96 96 97 97 100 108 114 110 103 94 86 76 65 57 53 49 46 46 46 49 55 64 66 69 73 76 81 84 86 88 86 82 77 75 78 80 74 69 67 66 69 73
72 78 86 97 103 106 111 118 122 120 113 98 79 60 53 50 49 45 44 44 44 49 63 72 71 67 71 79 84 86 85 84 77 68 68 75 77 69 57 50 47 48 47
61 62 69 83 107 122 133 137 140 152 144 129 100 61 54 51 51 48 42 42 39 48 64 73 71 66 70 78 86 85 79 78 71 64 65 62 64 61 46 33 26 21 9
48 55 64 73 90 136 161 185 200 198 186 180 175 120 68 54 50 62 52 43 38 51 66 71 64 66 70 76 84 79 72 65 65 63 56 47 42 33 17 3 352 348 333
34 37 44 52 58 129 196 230 230 217 216 214 209 214 227 261 10 110 88 58 42 52 71 79 82 76 70 79 81 78 72 63 66 58 44 34 26 17 356 343 332 324 320
26 26 20 24 21 30 260 263 235 226 225 225 221 227 237 228 223 234 191 168 85 98 108 146 175 154 114 85 74 71 89 80 62 49 33 18 8 3 351 347 342 329 313
19 17 7 3 4 351 319 278 245 233 233 232 228 231 230 228 237 250 248 242 234 208 196 187 198 203 205 225 247 167 113 82 37 27 12 355 349 347 341 341 343 342 336
9 4 356 1 355 328 318 301 266 252 247 240 239 239 244 250 248 256 260 255 250 230 217 205 213 223 224 221 234 239 242 270 292 299 332 331 320 330 331 330 330 330 329
1 357 352 349 343 323 313 300 280 271 253 245 245 239 248 250 251 253 255 251 251 247 237 230 229 228 222 226 239 243 249 262 271 277 300 310 302 308 316 322 321 318 318
356 352 349 340 332 322 309 303 295 284 261 249 248 243 248 252 253 251 250 252 252 254 255 247 235 230 230 234 245 251 259 264 264 271 287 297 295 299 304 309 312 308 309
348 345 346 340 330 326 322 306 300 299 286 262 250 247 247 252 251 250 253 255 254 255 257 257 247 240 238 238 243 253 265 268 264 267 278 288 293 296 297 298 304 305 302
344 340 336 332 325 324 325 317 310 305 296 274 253 252 253 256 252 250 251 252 251 253 253 253 252 246 243 243 246 254 262 264 272 272 271 277 284 286 289 289 293 297 298
335 332 327 325 320 315 314 307 304 303 294 283 264 255 256 259 256 253 249 251 250 249 248 248 251 250 246 245 248 255 262 262 267 270 271 274 277 280 283 284 283 285 289
324 323 318 315 311 307 301 299 299 297 290 283 268 257 256 256 256 251 251 250 253 250 246 246 248 249 248 247 248 251 259 263 263 268 272 275 279 279 278 277 277 279 281
315 312 309 307 305 303 299 297 296 290 288 283 274 265 258 250 250 253 252 249 251 251 246 245 247 248 249 248 248 252 257 262 264 266 270 275 277 278 276 272 273 276 277
311 308 306 300 297 298 299 298 295 288 284 280 276 271 264 255 248 247 248 248 248 247 245 244 245 247 248 251 252 254 258 261 262 265 268 270 275 278 276 271 269 273 274
302 304 303 298 296 298 298 299 296 290 286 278 274 268 264 258 250 249 249 250 250 248 245 245 247 248 249 251 253 255 259 261 263 264 265 268 271 275 276 273 271 273 273
297 300 301 299 298 298 300 300 297 293 293 287 276 268 262 258 252 252 251 250 250 251 249 248 248 248 250 251 253 254 258 261 263 264 264 267 269 272 274 273 271 272 274
Height
5888 5888 5888 5888 5888 5889 5889 5890 5890 5891 5892 5892 5893 5893 5894 5894 5894 5894 5895 5895 5895 5895 5895 5895 5895 5895 5895 5895 5896 5896 5896 5896 5896 5897 5897 5897 5897 5898 5898 5898 5899 5899 5899
5889 5889 5889 5889 5889 5890 5890 5891 5892 5892 5893 5893 5894 5895 5895 5895 5895 5896 5896 5896 5896 5896 5896 5896 5896 5896 5897 5897 5897 5897 5897 5897 5898 5898 5898 5899 5899 5899 5899 5900 5900 5900 5900
5890 5890 5890 5890 5890 5891 5891 5892 5893 5893 5894 5894 5895 5896 5896 5896 5897 5897 5897 5897 5897 5897 5897 5897 5897 5897 5897 5898 5898 5898 5898 5899 5899 5899 5900 5900 5900 5900 5900 5901 5901 5901 5901
5891 5891 5891 5891 5891 5892 5892 5893 5894 5894 5895 5896 5896 5897 5897 5898 5898 5898 5898 5898 5898 5898 5898 5898 5898 5899 5898 5899 5899 5899 5899 5900 5900 5900 5901 5901 5901 5902 5902 5902 5902 5902 5902
5892 5892 5892 5892 5892 5893 5893 5893 5894 5895 5896 5896 5897 5898 5898 5899 5899 5899 5899 5899 5899 5899 5899 5899 5899 5899 5899 5900 5900 5900 5900 5901 5901 5901 5902 5902 5902 5903 5903 5903 5903 5903 5903
5893 5893 5893 5893 5893 5893 5894 5894 5895 5896 5896 5897 5898 5898 5899 5899 5900 5900 5900 5900 5900 5900 5900 5900 5900 5900 5900 5900 5901 5901 5901 5902 5902 5902 5903 5903 5903 5903 5903 5904 5904 5904 5904
5894 5893 5893 5894 5894 5894 5894 5895 5896 5896 5897 5898 5898 5899 5900 5900 5900 5900 5901 5901 5901 5900 5900 5901 5901 5901 5901 5901 5902 5902 5902 5903 5903 5903 5904 5904 5904 5904 5904 5904 5904 5905 5905
5894 5894 5894 5894 5894 5894 5895 5895 5896 5897 5897 5898 5899 5899 5900 5900 5901 5901 5901 5901 5901 5901 5901 5901 5902 5902 5902 5902 5902 5903 5903 5903 5904 5904 5904 5904 5904 5905 5905 5905 5905 5905 5905
5894 5894 5894 5894 5894 5895 5895 5896 5896 5897 5898 5898 5899 5900 5900 5901 5901 5902 5902 5902 5902 5902 5902 5902 5903 5903 5903 5903 5903 5903 5904 5904 5904 5905 5905 5905 5905 5905 5905 5906 5906 5906 5906
5895 5894 5894 5894 5895 5895 5895 5896 5897 5897 5898 5899 5899 5900 5900 5901 5901 5902 5902 5902 5902 5902 5903 5903 5903 5903 5904 5904 5904 5904 5904 5905 5905 5905 5905 5905 5905 5906 5906 5906 5906 5906 5906
5895 5895 5895 5895 5895 5895 5896 5896 5897 5897 5898 5899 5899 5900 5900 5901 5902 5902 5902 5902 5903 5903 5903 5903 5904 5904 5904 5904 5904 5905 5905 5905 5906 5906 5906 5906 5906 5906 5906 5906 5906 5906 5906
5896 5895 5895 5895 5895 5895 5896 5896 5897 5897 5898 5898 5899 5900 5900 5901 5902 5902 5902 5903 5903 5903 5903 5904 5904 5905 5905 5905 5905 5906 5906 5906 5906 5906 5906 5906 5906 5907 5907 5907 5906 5906 5906
5896 5896 5895 5895 5894 5895 5895 5896 5896 5897 5897 5898 5899 5900 5900 5901 5902 5902 5902 5903 5903 5903 5904 5904 5904 5905 5905 5906 5906 5906 5906 5906 5906 5906 5907 5907 5907 5907 5907 5907 5906 5906 5906
5896 5896 5895 5895 5895 5895 5895 5895 5895 5896 5897 5898 5898 5899 5900 5901 5901 5902 5902 5903 5903 5903 5904 5904 5905 5905 5905 5906 5906 5906 5906 5906 5906 5907 5907 5907 5907 5907 5907 5907 5906 5906 5906
5896 5896 5896 5895 5895 5895 5894 5895 5895 5895 5896 5897 5897 5898 5899 5900 5901 5902 5902 5902 5903 5903 5904 5904 5905 5905 5905 5906 5906 5906 5906 5906 5907 5907 5907 5907 5907 5907 5907 5907 5906 5906 5906
5897 5896 5895 5895 5895 5895 5894 5894 5895 5895 5895 5896 5897 5897 5898 5899 5900 5901 5901 5902 5902 5903 5903 5904 5904 5905 5905 5905 5906 5906 5906 5906 5907 5907 5907 5907 5907 5907 5907 5906 5906 5906 5906
5897 5896 5895 5895 5894 5894 5894 5894 5894 5894 5894 5894 5895 5896 5897 5898 5899 5900 5900 5901 5901 5902 5903 5903 5904 5904 5904 5905 5905 5906 5906 5906 5906 5906 5907 5907 5907 5907 5906 5906 5906 5906 5905
5896 5896 5895 5894 5894 5894 5893 5893 5892 5892 5892 5893 5894 5894 5895 5896 5897 5898 5899 5900 5900 5901 5902 5902 5903 5904 5904 5904 5905 5905 5905 5906 5906 5906 5906 5906 5906 5906 5906 5906 5906 5905 5905
5896 5895 5895 5894 5893 5893 5892 5892 5891 5891 5891 5891 5892 5892 5893 5894 5895 5896 5897 5898 5899 5900 5900 5901 5902 5903 5904 5904 5904 5904 5905 5905 5905 5905 5906 5906 5906 5906 5906 5905 5905 5905 5905
5896 5895 5894 5893 5893 5892 5891 5890 5890 5890 5889 5889 5889 5890 5891 5892 5893 5894 5895 5896 5897 5898 5899 5900 5901 5902 5902 5903 5903 5903 5904 5904 5904 5904 5905 5905 5905 5905 5905 5905 5905 5904 5904
5896 5894 5893 5893 5892 5891 5890 5889 5889 5888 5888 5887 5886 5888 5889 5890 5890 5891 5892 5893 5895 5896 5897 5898 5899 5900 5901 5901 5902 5902 5903 5903 5903 5903 5904 5904 5904 5904 5904 5904 5904 5903 5903
5895 5894 5893 5892 5891 5890 5889 5888 5887 5886 5885 5885 5886 5886 5886 5887 5888 5888 5890 5891 5892 5893 5895 5896 5897 5898 5899 5899 5900 5900 5901 5902 5902 5902 5902 5902 5902 5902 5902 5902 5902 5902 5902
5893 5892 5891 5890 5889 5888 5887 5886 5885 5884 5883 5882 5883 5883 5883 5883 5885 5885 5887 5888 5889 5891 5892 5893 5894 5896 5896 5897 5898 5899 5899 5900 5900 5900 5900 5900 5900 5900 5900 5900 5900 5900 5900
5891 5890 5889 5888 5887 5886 5885 5884 5882 5881 5880 5880 5880 5880 5879 5880 5881 5882 5883 5884 5886 5888 5889 5890 5891 5892 5893 5894 5895 5896 5897 5897 5897 5898 5898 5898 5898 5898 5898 5898 5898 5898 5897
5889 5888 5887 5886 5884 5883 5882 5881 5879 5878 5877 5876 5876 5876 5877 5877 5878 5879 5880 5881 5883 5884 5885 5887 5888 5889 5890 5891 5892 5893 5893 5894 5894 5895 5895 5895 5895 5895 5895 5895 5895 5894 5894
5887 5886 5885 5884 5882 5881 5879 5878 5876 5875 5873 5873 5873 5873 5874 5875 5875 5876 5877 5878 5879 5880 5881 5883 5884 5885 5886 5887 5888 5889 5890 5890 5890 5891 5891 5891 5891 5892 5892 5891 5891 5891 5890